This is the latest recevied weather packets stored in our database for station/object EW8324. If no packets are shown the sender has not sent any weather packets the latest 10 day(s).
| Time | Temp. | Humidity | Pressure | Rain* | Wind** | Luminosity | Snow |
|---|---|---|---|---|---|---|---|
| 1777992344 | 25° C | 84% | 1004.9 hPa | 0 mm | - | 79 W/m² | - |
| 1777992060 | 25° C | 84% | 1004.8 hPa | 0 mm | - | 144 W/m² | - |
| 1777991745 | 25° C | 84% | 1004.9 hPa | 0 mm | - | 88 W/m² | - |
| 1777991445 | 25° C | 84% | 1004.8 hPa | 0 mm | - | 90 W/m² | - |
| 1777991203 | 25° C | 84% | 1004.8 hPa | 0 mm | - | 92 W/m² | - |
| 1777990905 | 24.44° C | 84% | 1004.8 hPa | 0 mm | - | 90 W/m² | - |
| 1777990544 | 24.44° C | 84% | 1004.8 hPa | 0 mm | - | 158 W/m² | - |
| 1777989943 | 24.44° C | 84% | 1004.6 hPa | 0 mm | - | 160 W/m² | - |
| 1777989661 | 24.44° C | 84% | 1004.4 hPa | 0 mm | - | 174 W/m² | - |
| 1777989341 | 23.89° C | 84% | 1004.6 hPa | 0 mm | - | 160 W/m² | - |
| 1777989043 | 23.89° C | 84% | 1004.7 hPa | 0 mm | - | 137 W/m² | - |
| 1777988743 | 23.89° C | 84% | 1004.9 hPa | 0 mm | - | 167 W/m² | - |
| 1777988446 | 23.89° C | 84% | 1004.9 hPa | 0 mm | - | 102 W/m² | - |
| 1777988144 | 23.89° C | 84% | 1004.9 hPa | 0 mm | - | 53 W/m² | - |
| 1777987852 | 23.89° C | 84% | 1005 hPa | 0 mm | - | 58 W/m² | - |
| 1777987543 | 23.89° C | 84% | 1005.1 hPa | 0 mm | - | 35 W/m² | - |
| 1777987247 | 23.89° C | 84% | 1005.1 hPa | 0 mm | - | 39 W/m² | - |
| 1777986943 | 23.33° C | 84% | 1004.8 hPa | 0 mm | - | 77 W/m² | - |
| 1777986787 | 23.33° C | 83% | 1004.7 hPa | 0 mm | - | 84 W/m² | - |
| 1777986358 | 23.33° C | 83% | 1004.7 hPa | 0 mm | - | 70 W/m² | - |
| 1777986045 | 23.33° C | 83% | 1004.7 hPa | 0 mm | - | 65 W/m² | - |
| 1777985741 | 23.33° C | 83% | 1004.3 hPa | 0 mm | - | 74 W/m² | - |
| 1777985444 | 23.33° C | 83% | 1004.2 hPa | 0 mm | - | 100 W/m² | - |
| 1777985142 | 22.78° C | 83% | 1004.1 hPa | 0 mm | - | 70 W/m² | - |
| 1777984843 | 22.78° C | 82% | 1004.4 hPa | 0 mm | - | 69 W/m² | - |
* Rain latest hour (hover to see other rain measurements)
** Current wind speed in m/s (hover to see current wind gust speed)